Location: Bad Salzschlirf
(50.3750°N, 9.3000°E)
Time: 06:37:13
(UTC+01:00)

ISS - Pass Details

Date: 07 December 2019
Orbit: 411 x 421 km, 51.6° (Epoch: 15 December)

Event Time Altitude Azimuth Distance (km) Brightness Sun altitude
Rises 17:35:18 0° 286° (WNW) 2,358 1.0 -11.4°
Reaches altitude 10° 17:37:24 10° 284° (WNW) 1,495 -0.1 -11.7°
Maximum altitude 17:40:45 72° 200° (SSW) 443 -3.6 -12.2°
Enters shadow 17:43:44 13° 116° (ESE) 1,352 -1.6 -12.6°
